KA6AKH Alexandria VA US current weather conditions

sailwx.info

Wind from 039

Air temperature 23.9° C
Dewpoint 23.9° C

Last reported at 2020-Aug-06 05:52 UTC.
Time now 2020-Aug-06 07:17 UTC

Location: N 38°49' W 077°08'.
View on Google Maps.

See reports from other nearby stations

  
Tides and Currents Weather Stations Pressure Air Temp Water Temp Dewpoint Dewpoint Depression Visibility Wind Speed Wind Dir Waves Ship Positions
date/time (UTC)wind fromknots sea level pressurealtimeterstation pressurevisibilityair tempwater tempwave heightnotes
2020-Aug-06 05:52 039 23.9
2020-Aug-06 05:32 039 23.9
2020-Aug-06 05:12 039 24.4
2020-Aug-06 04:52 039 24.4
2020-Aug-06 04:32 039 24.4
2020-Aug-06 04:12 039 24.4
2020-Aug-06 03:52 039 25.0
2020-Aug-06 03:32 039 25.0
2020-Aug-06 03:12 039 25.0
2020-Aug-06 02:52 039 25.0
2020-Aug-06 02:32 039 25.6
2020-Aug-06 02:12 039 25.6
2020-Aug-06 01:52 039 26.1
2020-Aug-06 01:32 039 26.1
2020-Aug-06 01:12 039 26.1
2020-Aug-06 00:52 039 26.7
2020-Aug-06 00:32 039 26.7
2020-Aug-06 00:12 039 27.2
2020-Aug-05 23:52 039 27.8
2020-Aug-05 23:32 039 28.3
2020-Aug-05 23:12 039 29.4
2020-Aug-05 22:52 039 30.0
2020-Aug-05 22:32 039 29.4
2020-Aug-05 22:13 039 28.9
2020-Aug-05 21:52 039 28.3
2020-Aug-05 21:32 039 28.3
2020-Aug-05 21:12 039 28.9
2020-Aug-05 20:52 046 30.0
2020-Aug-05 20:32 210 30.6
2020-Aug-05 20:12 200 31.1
2020-Aug-05 19:52 200 31.7
2020-Aug-05 19:32 179 31.7
2020-Aug-05 19:12 243 31.7
2020-Aug-05 18:52 243 31.7
2020-Aug-05 18:32 232 0 gusting 2 31.7
2020-Aug-05 18:12 179 31.1
2020-Aug-05 17:52 052 31.1
2020-Aug-05 17:32 041 30.6
2020-Aug-05 17:12 042 30.0
2020-Aug-05 16:52 345 30.0
2020-Aug-05 16:32 035 28.9
2020-Aug-05 16:12 035 28.9
2020-Aug-05 15:52 048 28.3
2020-Aug-05 15:32 315 27.8
2020-Aug-05 15:12 034 0 gusting 3 27.2
2020-Aug-05 14:52 034 0 gusting 3 26.1
2020-Aug-05 14:32 354 25.0
2020-Aug-05 14:12 049 23.9
2020-Aug-05 13:52 023 22.8
2020-Aug-05 13:32 023 21.7
2020-Aug-05 13:12 143 21.1
2020-Aug-05 12:52 143 20.6
2020-Aug-05 12:32 143 20.6
2020-Aug-05 12:12 143 20.6
2020-Aug-05 11:52 143 20.6
2020-Aug-05 11:32 143 20.0
2020-Aug-05 11:12 143 20.0
2020-Aug-05 10:52 143 19.4
2020-Aug-05 10:32 143 19.4
2020-Aug-05 10:12 143 20.0
2020-Aug-05 09:52 143 20.0
2020-Aug-05 09:32 143 20.0
2020-Aug-05 09:12 143 20.0
2020-Aug-05 08:52 143 20.0
2020-Aug-05 08:32 143 20.0
2020-Aug-05 08:12 143 20.0
2020-Aug-05 07:52 143 20.6
2020-Aug-05 07:32 143 20.6
2020-Aug-05 07:12 143 20.6
2020-Aug-05 06:52 143 21.1
2020-Aug-05 06:32 143 21.7
2020-Aug-05 06:12 143 21.7
2020-Aug-05 05:52 143 21.7
2020-Aug-05 05:32 143 21.7
2020-Aug-05 05:12 143 22.2
2020-Aug-05 04:52 143 22.2
2020-Aug-05 04:32 143 22.2
2020-Aug-05 04:12 143 22.2
2020-Aug-05 03:52 143 22.2
2020-Aug-05 03:32 143 22.2
2020-Aug-05 03:12 143 22.2
2020-Aug-05 02:52 143 22.8
2020-Aug-05 02:32 143 22.8
2020-Aug-05 02:12 143 23.3
2020-Aug-05 01:52 256 24.4
2020-Aug-05 01:32 179 25.0
2020-Aug-05 01:12 179 25.0
2020-Aug-05 00:52 179 25.0
2020-Aug-05 00:32 179 25.6
2020-Aug-05 00:12 179 26.1
2020-Aug-04 23:52 179 26.1
2020-Aug-04 23:32 179 26.7
2020-Aug-04 23:12 179 27.2
2020-Aug-04 22:52 179 27.8
2020-Aug-04 22:32 243 28.3
2020-Aug-04 22:12 176 0 gusting 5 28.3
2020-Aug-04 21:52 271 2 gusting 6 28.9
2020-Aug-04 21:32 269 0 gusting 4 28.9
2020-Aug-04 21:12 256 1 gusting 5 29.4
2020-Aug-04 20:52 222 30.0
2020-Aug-04 20:32 218 1 gusting 6 30.6
2020-Aug-04 20:12 195 1 gusting 6 30.6
2020-Aug-04 19:52 250 2 gusting 7 30.6
2020-Aug-04 19:32 243 1 gusting 7 30.6
2020-Aug-04 19:12 246 30.6
2020-Aug-04 18:52 198 30.0
2020-Aug-04 18:32 238 1 gusting 6 30.0
2020-Aug-04 18:12 283 28.3
2020-Aug-04 17:52 240 1 gusting 6 27.8
2020-Aug-04 17:32 212 1 gusting 4 27.2
2020-Aug-04 17:12 038 0 gusting 6 26.1
2020-Aug-04 16:52 250 25.0
2020-Aug-04 16:32 305 24.4
2020-Aug-04 16:12 330 23.3
2020-Aug-04 15:52 262 22.8
2020-Aug-04 15:32 270 1 gusting 6 22.2
2020-Aug-04 15:12 211 1 gusting 6 21.7
2020-Aug-04 14:52 347 0 gusting 6 21.7
2020-Aug-04 14:32 274 21.1
2020-Aug-04 14:12 035 1 gusting 6 20.6
2020-Aug-04 13:52 049 0 gusting 6 20.0
2020-Aug-04 13:32 013 20.0
2020-Aug-04 13:12 051 1 gusting 6 20.0
2020-Aug-04 12:52 065 0 gusting 6 20.0
2020-Aug-04 12:32 046 20.6
2020-Aug-04 12:12 20.6
2020-Aug-04 11:52 023 20.6
2020-Aug-04 11:32 017 0 gusting 5 20.6
2020-Aug-04 11:12 011 1 gusting 6 20.6
2020-Aug-04 10:52 350 0 gusting 4 21.1
2020-Aug-04 10:32 180 21.1
2020-Aug-04 10:12 180 21.1
2020-Aug-04 09:52 180 21.1
2020-Aug-04 09:32 180 21.1
2020-Aug-04 09:12 180 21.7
2020-Aug-04 08:52 180 21.1
2020-Aug-04 08:32 180 21.7
2020-Aug-04 08:12 180 21.7
2020-Aug-04 07:52 180 21.7
2020-Aug-04 07:32 180 21.7
2020-Aug-04 07:12 180 21.7